DELTA 1 DEB, 40759

Orbit data source: Space-Track

DELTA 1 DEB, 40759 is space debris in SSO originally from a launch on Thu, 29 Jul 1976 UTC launched from the Air Force Western Test Range (AFWTR). Debris objects in space refer to the collection of defunct objects orbiting the Earth. Examples of debris include non-operational satellites, rocket bodies, and fragments generated from explosions, collisions, or faulty payload assembly.

Loading next visibility...
Identifier
40759, 1976-077GC
Orbit
SSO
Country
Flag of USUS
Related business
Manufacturer
Unknown
Mission
Spacecraft
Bus & Motor
Unknown
Mass
Unknown
Launch date (UTC)
1976-07-29 (49 years ago)
Launch vehicle
Unknown
Launch site
Air Force Western Test Range (AFWTR)
Object type
Payload
Rocket body
Debris
Shape & HBR
Unknown shape, 0.1 m
Radar Cross Section
Small (<0.1 m²)

Expand to show TLE details & history
Last TLE update: 2 months ago

TLE from 2 months ago
0 DELTA 1 DEB
1 40759U 76077GC  25237.96266087  .00000034  00000-0  37003-3 0  9998
2 40759 102.1233 324.8911 0293028 174.0176 186.4524 12.66463456947639
Epoch: 2025-08-25T23:06Z
TLE epoch observation values (Epoch: 2025-08-25T23:06:13.899Z)
Latitude
-0.00002°
Longitude
3.872°
Altitude
1,625.452 km
Speed
6.955 km/s
True Right ascension
21h 39m 33s
True Declination
0° 00' 00"
Sunlit
Object was in full shadow at epoch
Visualization orbit readout
Latitude
Unknown
Longitude
Unknown
Altitude
Unknown
Speed
Unknown
Apparent Right ascension
Unknown
Apparent Declination
Unknown
Sunlit
N/A
Visualization observer readout
Local Sidereal Time
18:01:28
Azimuth
Unknown
Elevation
Unknown
Doppler factor
Unknown
Orbital elements
Apogee altitude
1,621.667 km
Perigee altitude
1,166.181 km
Semi-major axis
7,772.061 km
Eccentricity
0.0293
Inclination
102.1233°
RAAN
324.8911°
Arg. of periapsis
174.0176°
True anomaly
186.08832°
Mean anomaly
186.4524°
Eccentric anomaly
186.26907°
Mean motion
3.16766 °/min
Orbital period
113.65 mins
BSTAR
0.00037003
Loading maneuver chart data...
Computing Atmospheric mass density...
Loading historical data...
Loading historical data...
Loading historical data...
Loading historical data...
Loading historical data...
Loading historical data...
Loading historical data...

Documentation

Showing up to 5 results
|